Overview Statistics Trail Chart Weather Telemetry Raw packets
 

This is the latest recevied weather packets stored in our database for station/object KA1JKB. If no packets are shown the sender has not sent any weather packets the latest 10 day(s).

<< 88 89 90 91 92 93 94 >>
Time Temp. Humidity Pressure Rain* Wind** Luminosity Snow
1787790903 19.44° C 98% 1009.3 hPa 0 mm - 0 W/m² -
1787790598 20° C 98% 1009.2 hPa 0 mm - 0 W/m² -
1787790293 20° C 97% 1009.1 hPa 0 mm - 0 W/m² -
1787789990 20° C 97% 1009.1 hPa 0 mm - 2 W/m² -
1787789689 20.56° C 96% 1009.1 hPa 0 mm - 4 W/m² -
1787789384 20.56° C 96% 1009 hPa 0 mm - 8 W/m² -
1787789084 20.56° C 95% 1009.1 hPa 0 mm - 12 W/m² -
1787788782 21.11° C 95% 1009 hPa 0 mm - 15 W/m² -
1787788477 21.11° C 95% 1009.1 hPa 0 mm - 20 W/m² -
1787788171 21.11° C 94% 1009.3 hPa 0 mm - 26 W/m² -
1787787866 21.67° C 94% 1009.1 hPa 0 mm - 30 W/m² -
1787787566 21.67° C 94% 1009.3 hPa 0 mm - 36 W/m² -
1787787264 21.67° C 94% 1009.3 hPa 0 mm - 41 W/m² -
1787786960 21.67° C 94% 1009.2 hPa 0 mm - 47 W/m² -
1787786655 22.22° C 94% 1009.2 hPa 0 mm - 58 W/m² -
1787786354 22.22° C 94% 1009.1 hPa 0 mm - 61 W/m² -
1787786051 22.22° C 94% 1009.3 hPa 0 mm - 60 W/m² -
1787785746 22.22° C 92% 1009.2 hPa 0 mm - 68 W/m² -
1787785441 22.78° C 91% 1009.1 hPa 0 mm - 93 W/m² -
1787785141 22.78° C 90% 1009.1 hPa 0 mm - 105 W/m² -
1787784836 22.78° C 90% 1009 hPa 0 mm - 88 W/m² -
1787784535 22.78° C 91% 1009 hPa 0 mm - 134 W/m² -
1787784234 22.78° C 91% 1009.1 hPa 0 mm - 101 W/m² -
1787783930 22.78° C 91% 1009.2 hPa 0 mm - 123 W/m² -
1787783626 22.78° C 90% 1009.3 hPa 0 mm - 211 W/m² -

* Rain latest hour (hover to see other rain measurements)
** Current wind speed in m/s (hover to see current wind gust speed)